sat.trackr.live / text

‹ back to catalog

SDA_1684

NORAD 65994 · 2025-230W

PAYLOAD ACTIVE UNKNOWN

§ Identity

Operator
Country
US
Launch date
2025-10-15
Launch site
AFWTR
Launch vehicle
Mass (kg)
RCS (m²)

External: N2YO · Heavens-Above · Gunter

§ Orbital elements

Epoch: 2026-09-20T14:24:01.657152Z

Period
104.49 min
Inclination
81.2993°
Eccentricity
0.0000734
Mean motion
13.78099917 rev/d
Perigee alt
970.1 km
Apogee alt
971.2 km
Semi-major
7,348.8 km
B*
1.1593e-4
RAAN
124.8698°
Arg perigee
36.3703°
Mean anomaly
323.7500°
Rev number
4,691

§ Raw data

SDA_16841 65994U 25230W   26263.60001918  .00000128  00000+0  11593-3 0  99912 65994  81.2993 124.8698 0000734  36.3703 323.7500 13.78099917 46915

JSON: /api/v1/satellites/65994 · /tle

For live sub-satellite position, see the globe view (requires WebGL).

§ Visibility from observer

Set your observer location to see the next 7 days of passes ≥ 10°. The values pass through the URL so the page stays shareable.

No JS? Fill the form by hand. The geolocation button needs JavaScript.

§ Radio — SatNOGS DB

ModeDescriptionDownlinkUplink
FM S-band telemetry 2.226 GHz

1 transmitter · refreshed weekly from db.satnogs.org